Tracking 27188 objects as of 1-Apr-2023
HD Live streaming from Space Station
objects crossing your sky now

STARLINK-5293

Track STARLINK-5293 now!
10-day predictions
STARLINK-5293 is classified as:


NORAD ID: 55295
Int'l Code: 2023-010AC
Perigee: 560.8 km
Apogee: 565.1 km
Inclination: 70.0 °
Period: 95.8 minutes
Semi major axis: 6933 km
RCS: Unknown
Launch date: January 19, 2023
Source: United States (US)
Launch site: AIR FORCE WESTERN TEST RANGE (AFWTR)
Your satellite tracking list
Your tracking list is empty




NASA's NSSDC Master Catalog

Two Line Element Set (TLE):
1 55295U 23010AC  23091.33334491 -.01089329  00000-0 -86083-1 0  9997
2 55295  69.9995 231.0558 0003088 263.0144 334.8099 15.03603335 11689
Source of the keplerian elements: AFSPC